Theta_e
311 309 309 308 307 307 307 307 307 307 307 307 308 309 308 307 308 307 305 304 305 305 305 305 307 307 305 306 308 308 308 307 306 307 305 304 306 310 312 311 314 304 308 309 308 310 313 325 330 333 331 330 331 336
310 309 309 308 307 307 308 307 307 307 307 308 308 308 307 308 307 306 305 304 304 303 301 304 305 305 305 305 302 302 304 304 304 305 305 305 308 308 308 311 311 317 314 317 314 310 323 321 327 326 325 330 330 330
310 309 309 310 308 307 308 307 307 308 308 308 307 307 307 307 306 306 305 304 304 298 298 298 301 304 304 304 304 303 301 303 304 300 301 302 307 304 306 309 309 309 314 319 317 321 317 318 321 323 323 328 328 328
310 310 309 311 309 308 307 307 307 307 307 307 307 307 307 307 305 305 305 304 303 299 302 300 302 303 304 305 304 304 302 305 302 300 302 302 304 303 305 306 306 311 315 314 316 318 315 320 316 319 325 326 327 326
311 310 310 313 309 308 307 307 307 307 306 306 306 306 307 305 305 305 305 304 303 302 302 300 301 304 308 305 305 303 302 302 303 303 303 304 301 305 304 307 311 312 313 316 318 315 315 315 318 319 323 326 325 325
313 311 310 313 312 308 307 307 307 306 306 306 306 306 305 305 305 305 300 305 304 302 301 302 300 302 308 305 304 302 301 303 303 302 303 302 303 308 308 314 312 312 313 314 315 314 313 316 317 319 320 324 325 326
305 312 311 311 313 310 308 307 307 306 306 306 305 305 305 305 305 303 302 304 304 303 300 303 303 305 308 309 308 306 303 303 303 303 303 305 306 310 312 314 311 311 310 311 311 311 315 315 315 315 320 323 325 326
304 305 311 311 313 311 309 308 307 306 306 306 306 305 306 306 306 304 303 303 303 303 303 305 306 306 308 309 311 309 309 307 305 305 303 306 311 304 313 311 309 309 310 310 310 311 312 311 312 316 321 323 325 329
316 303 308 312 311 313 310 308 307 307 306 306 306 306 307 307 306 305 304 304 303 304 305 306 306 310 306 309 308 308 308 310 307 310 310 309 311 311 310 309 308 309 310 311 310 310 310 312 314 318 320 322 323 327
322 309 305 313 312 312 312 309 308 307 307 307 307 309 310 306 306 306 306 306 304 305 304 305 305 309 306 308 307 308 308 309 313 310 309 306 310 309 307 307 309 311 311 311 312 312 312 312 316 316 318 322 322 324
323 320 306 308 314 313 313 312 309 308 308 309 310 312 309 307 306 301 304 304 303 302 302 304 306 307 307 312 311 308 307 304 310 311 312 311 309 306 308 310 312 313 314 313 312 311 310 310 312 314 316 320 323 322
325 324 322 311 307 313 312 312 309 308 309 310 310 310 308 306 307 309 309 306 305 305 305 305 306 305 307 309 312 309 312 310 311 311 310 311 309 309 310 309 311 312 313 314 317 315 312 313 316 315 319 322 319 319
326 325 324 320 311 314 313 311 311 308 309 309 310 313 313 311 309 316 316 312 313 307 304 306 309 305 304 304 306 308 312 313 309 309 309 309 308 309 309 309 310 311 311 312 313 314 315 315 314 315 316 315 313 312
325 325 323 313 313 312 311 311 309 308 307 312 318 317 315 315 313 314 314 313 311 307 306 306 307 307 303 307 304 309 308 307 309 309 309 306 306 307 307 308 311 311 311 311 312 311 311 310 310 310 310 310 309 308
324 324 315 313 316 315 307 311 309 308 308 314 318 314 315 313 312 312 309 308 309 307 307 307 306 305 305 306 301 303 307 304 306 302 304 305 304 305 304 305 310 311 311 311 310 311 311 310 309 308 308 308 308 308
323 323 317 315 315 315 310 309 308 308 310 314 316 319 314 314 313 310 309 308 308 308 307 308 310 307 308 305 308 309 303 305 304 304 303 302 303 302 301 302 307 309 309 309 309 309 310 310 309 308 307 306 306 306
323 319 316 318 315 311 309 309 308 310 313 319 320 315 312 311 315 311 308 307 308 308 307 306 308 310 304 306 305 302 305 305 304 304 302 303 304 302 300 301 306 309 308 307 305 308 309 309 309 308 307 304 304 303
321 321 320 317 309 308 308 310 312 315 320 321 322 316 311 311 313 314 310 305 307 304 305 308 304 308 307 308 306 304 302 301 301 302 301 301 303 302 300 299 299 299 299 299 299 298 299 305 306 306 306 306 303 302
322 322 323 315 310 309 311 314 314 323 323 316 312 312 313 314 314 314 312 306 305 305 306 306 308 307 306 303 303 302 301 300 303 303 301 302 303 300 300 299 299 298 297 297 297 296 297 297 300 305 306 305 304 300
322 323 318 318 316 311 316 320 321 321 319 317 314 316 316 316 315 313 309 308 308 310 311 310 308 305 304 303 301 301 300 299 298 298 298 299 302 299 299 298 297 297 297 297 296 297 297 297 298 301 304 303 304 303
321 317 315 315 314 313 315 317 320 321 318 319 315 316 317 315 316 316 315 311 311 312 312 308 307 304 303 304 305 303 301 302 300 300 299 300 302 298 297 297 297 297 296 295 294 295 296 295 296 297 300 300 300 302
320 319 315 317 316 318 317 318 319 316 317 317 318 317 319 319 318 316 313 316 315 312 309 308 306 304 304 305 306 307 308 306 305 303 299 302 296 295 295 296 296 295 295 295 294 294 295 297 299 300 301 301 300 298
315 314 314 315 322 318 320 322 326 321 323 321 319 321 319 320 319 315 318 316 315 311 308 309 307 307 306 307 308 308 308 308 305 301 301 300 298 297 297 296 296 295 294 294 294 295 296 297 298 297 297 296 296 296
313 312 319 324 320 316 317 319 319 319 322 323 322 324 324 323 316 317 321 317 315 310 309 309 310 308 309 309 307 308 309 307 301 299 300 297 295 295 297 296 296 296 295 295 295 295 296 296 296 296 296 296 296 295
316 316 316 314 321 326 327 323 321 320 322 323 325 324 322 319 320 318 318 314 314 314 310 310 310 310 310 310 310 310 308 303 300 297 298 297 296 295 295 295 295 295 295 295 295 295 296 296 296 296 295 295 295 295
314 317 319 326 324 323 319 322 323 322 321 324 326 321 318 319 321 320 316 313 313 314 312 312 312 311 310 311 310 306 306 303 302 299 298 298 298 297 294 293 294 295 295 295 295 295 295 295 295 295 295 294 294 295
312 315 317 319 321 321 319 317 318 320 324 325 324 321 322 324 324 320 314 312 312 315 317 316 314 313 312 311 312 310 307 304 303 302 302 299 298 298 298 296 294 296 296 296 295 295 295 295 294 294 294 295 295 294
318 318 318 320 321 321 319 320 322 322 322 321 321 324 326 325 323 319 315 316 317 317 318 317 317 318 317 316 312 305 301 301 300 300 299 298 298 297 297 297 297 296 296 296 295 295 295 295 295 294 295 296 296 296
317 317 316 317 317 317 318 317 316 316 317 320 322 322 324 320 318 317 317 318 316 313 309 308 306 310 309 306 304 302 300 299 298 296 296 294 294 296 297 297 297 296 296 296 295 296 296 296 296 296 296 296 297 297
316 315 318 318 315 314 312 314 318 318 316 318 320 319 318 317 319 320 319 315 311 310 310 310 307 307 301 300 298 297 298 299 300 298 295 294 295 297 297 296 297 297 296 296 296 296 296 296 297 297 297 297 297 297
316 315 316 317 318 315 314 312 313 317 319 318 318 319 320 319 319 320 319 313 310 310 308 304 303 304 301 299 298 297 297 298 299 298 299 299 297 297 297 297 297 297 297 296 297 297 297 297 297 296 296 296 297 297
318 318 320 322 321 318 316 315 316 318 319 320 321 321 321 319 320 317 318 314 309 305 305 305 304 301 303 302 301 301 302 302 299 298 298 298 297 297 297 297 297 297 297 297 297 297 297 296 297 297 297 296 296 296
319 320 320 321 321 321 317 318 319 322 322 323 322 319 319 319 321 318 320 316 314 310 307 305 305 306 304 302 301 301 301 301 301 299 298 297 297 297 297 297 297 298 298 297 297 297 297 297 297 297 297 297 296 295
Wind_Speed
24 26 27 24 23 20 17 15 14 12 11 10 8 8 6 4 6 2 5 3 2 0 2 1 2 3 2 0 1 2 4 3 3 4 2 2 2 1 1 2 1 2 4 3 2 2 6 15 6 5 7 11 14 14
24 26 26 23 21 18 14 13 10 9 9 8 9 8 7 6 5 4 3 2 3 1 4 3 9 14 12 8 2 3 2 1 3 3 1 2 0 1 2 2 2 1 1 1 3 4 4 8 9 7 10 9 10 12
23 25 25 22 19 15 12 9 7 9 9 8 7 6 5 5 3 4 4 5 3 2 4 3 4 0 10 19 18 2 2 1 1 2 3 2 1 3 3 4 1 2 2 1 4 2 8 9 8 10 11 13 14 16
23 24 24 21 18 13 10 7 7 9 8 8 6 5 5 4 4 3 2 4 3 3 1 4 5 4 5 4 15 19 2 2 4 3 2 1 1 1 3 2 2 3 2 2 5 4 12 5 11 15 15 14 17 17
22 23 22 20 17 12 8 6 8 8 8 8 6 5 4 5 3 4 3 2 4 2 1 4 11 3 9 5 9 15 10 2 2 2 2 1 2 2 2 1 3 2 2 2 2 6 5 11 13 17 15 16 17 18
21 22 22 19 16 11 6 5 6 7 7 8 8 7 6 3 5 4 3 4 4 3 1 3 4 3 7 8 5 4 4 2 1 3 3 2 3 2 0 3 1 2 4 5 3 8 13 17 17 12 13 13 16 14
22 20 20 18 15 8 5 3 3 5 4 5 5 5 5 6 8 3 1 5 3 3 2 4 4 3 6 6 3 3 3 2 2 1 2 1 1 3 2 3 2 5 6 10 8 9 11 7 6 15 13 13 15 15
24 21 19 18 13 8 5 2 2 2 2 2 4 5 5 9 5 2 1 2 2 2 1 1 3 3 4 0 2 2 1 1 3 1 1 1 0 3 3 4 8 8 10 13 13 7 10 13 15 13 11 8 9 10
25 23 20 16 14 9 5 4 3 3 3 5 8 11 6 2 2 2 3 3 3 1 1 1 1 1 1 2 2 2 2 2 2 2 1 3 0 2 6 12 12 14 8 11 12 12 12 13 14 10 9 9 10 10
25 24 21 16 15 10 7 6 5 4 5 7 6 2 2 1 2 4 2 1 1 1 1 2 1 1 3 1 2 1 0 1 2 1 1 0 2 4 11 14 15 14 14 13 13 12 9 7 6 6 7 6 6 6
22 24 22 19 17 14 8 7 7 5 5 1 1 1 4 4 2 2 1 1 1 3 2 3 2 2 2 2 2 1 1 0 1 2 2 2 2 5 15 14 11 11 9 11 12 12 11 7 9 8 8 7 6 9
23 23 23 22 19 11 6 6 7 6 2 3 6 6 3 2 1 1 2 1 2 3 2 2 3 3 2 0 2 2 1 2 0 2 1 3 4 10 10 16 17 13 12 13 3 11 8 11 11 10 6 2 10 8
24 24 26 24 7 5 8 8 6 9 3 3 2 2 1 1 4 1 4 4 3 3 3 2 0 0 3 3 3 1 3 1 2 3 2 3 5 5 7 9 11 15 19 22 23 21 19 18 21 17 14 16 15 15
25 28 30 4 4 10 14 6 5 7 4 1 2 4 3 3 4 4 3 3 3 3 3 2 2 1 1 3 0 4 2 2 3 4 2 3 6 9 6 6 6 10 12 11 13 18 21 21 21 20 21 20 18 15
25 27 10 5 3 17 20 3 9 7 4 2 2 4 6 5 4 4 3 0 2 3 3 2 3 2 2 3 2 3 3 2 1 3 3 4 6 6 7 5 5 6 7 7 9 9 10 11 16 17 19 20 19 17
24 18 2 7 16 24 10 10 11 5 3 3 4 3 3 0 3 1 2 2 3 3 3 2 2 3 2 3 2 2 4 2 3 3 3 3 5 6 6 5 4 5 10 9 10 11 14 12 12 11 17 18 17 16
20 3 10 15 25 11 12 5 6 4 3 4 5 4 3 3 4 3 3 2 7 2 2 3 2 1 2 3 1 4 4 3 4 3 2 3 1 2 5 3 4 4 7 11 13 12 11 10 8 12 11 16 16 18
9 13 23 26 14 9 4 7 4 4 6 6 3 3 3 3 3 2 3 3 4 3 3 2 4 2 2 3 2 3 3 3 3 3 2 2 3 2 1 2 9 10 10 10 10 10 10 9 8 7 8 8 12 13
25 24 20 13 6 4 3 6 6 4 7 3 3 2 2 1 3 1 2 5 4 3 5 2 4 2 3 3 4 3 2 3 3 2 2 3 7 8 5 3 5 7 8 9 10 9 10 8 4 4 5 5 7 7
21 21 6 8 7 4 3 3 6 3 4 3 1 1 1 1 2 1 2 2 3 2 2 2 4 4 4 3 4 3 3 4 3 1 1 1 6 10 8 6 5 5 5 8 12 14 14 11 11 5 1 3 4 6
13 3 5 7 5 8 3 2 3 4 2 2 0 2 0 2 2 2 1 1 2 2 3 4 3 3 6 4 8 7 8 9 4 4 4 3 8 9 8 7 6 5 5 6 7 11 14 12 9 9 4 5 5 10
6 9 3 3 4 4 4 7 3 2 0 2 1 2 1 1 1 2 1 1 3 4 4 4 4 4 4 4 8 12 7 8 6 4 6 14 3 5 6 10 9 6 4 3 4 6 5 7 9 13 16 16 15 10
10 3 4 5 3 2 7 3 3 3 2 2 1 1 1 1 2 2 2 3 3 3 6 4 7 11 9 9 8 8 8 7 5 7 10 8 11 11 12 12 11 9 3 3 4 4 5 6 8 8 8 7 7 7
4 2 3 3 6 5 2 3 2 1 2 1 2 3 2 2 1 1 3 3 3 3 4 6 10 4 3 2 3 5 8 7 11 9 10 18 13 8 12 12 9 6 5 6 7 8 8 7 7 7 6 4 1 1
1 4 4 6 3 3 4 3 3 2 4 4 4 3 2 1 0 2 3 3 2 3 4 7 7 4 4 2 2 7 9 16 15 7 13 16 15 13 11 8 7 6 5 7 8 7 6 5 4 4 3 3 3 3
3 4 7 6 3 3 4 2 3 5 3 4 3 2 1 1 1 5 3 3 3 4 5 7 6 4 3 7 3 6 14 14 13 9 14 20 19 19 13 7 5 3 4 4 4 4 2 1 1 2 4 6 7 8
5 6 4 1 2 4 4 3 3 2 4 6 4 4 3 3 4 4 3 3 3 7 16 22 19 12 8 14 10 6 13 14 9 8 14 21 14 10 9 12 9 6 4 2 1 3 4 3 3 5 8 10 11 12
5 3 6 6 4 3 4 2 3 3 3 3 4 5 4 4 4 3 5 3 9 12 13 13 14 13 12 16 18 19 16 13 14 17 19 13 11 9 7 6 6 6 5 3 2 5 5 5 7 8 10 13 15 15
4 3 3 5 4 5 5 6 5 4 4 4 5 4 4 4 2 2 4 9 13 18 19 16 11 15 18 20 21 22 25 28 22 8 7 4 5 9 9 7 6 7 8 8 6 7 4 5 8 9 12 15 19 22
4 4 3 4 5 5 5 5 3 2 2 3 1 1 2 2 1 5 8 18 19 16 21 24 28 27 21 21 19 21 25 24 22 18 8 6 14 14 13 10 7 5 6 6 5 5 6 7 10 13 17 21 25 28
2 4 3 4 4 4 7 4 2 0 0 1 1 1 2 2 2 3 13 15 14 23 23 19 20 23 24 18 18 17 13 23 21 15 7 5 15 16 14 10 7 4 6 9 8 8 10 13 16 20 24 27 30 29
3 6 4 4 4 3 3 4 4 3 3 2 1 1 1 2 2 2 8 16 19 18 21 23 21 25 27 24 24 24 11 22 25 20 10 14 17 16 13 10 7 4 5 8 11 13 15 17 20 23 25 28 28 26
3 3 3 3 3 3 2 4 3 3 2 2 2 2 3 4 4 2 4 12 18 21 27 26 25 26 27 24 24 22 12 15 20 20 18 17 16 14 12 9 7 4 5 8 11 13 16 19 23 27 27 25 23 21
Wind_Direction
349 351 353 355 359 3 7 10 12 20 29 34 31 30 45 72 105 35 73 98 16 189 270 259 227 204 315 70 132 309 355 327 21 66 111 191 170 223 355 270 341 178 147 196 155 188 275 358 342 40 306 294 314 322
350 354 355 357 3 7 12 13 18 29 31 27 32 40 59 83 107 36 90 34 332 272 252 255 264 260 251 247 70 340 206 229 198 89 45 104 108 32 176 259 33 189 189 170 236 221 12 327 317 333 316 325 328 315
350 356 357 358 5 9 15 20 25 21 22 30 33 46 64 99 98 23 97 46 357 37 306 337 245 292 247 247 238 145 299 246 39 164 149 163 152 135 188 245 283 356 50 243 334 50 325 302 314 335 339 345 334 333
351 357 359 359 4 8 18 28 30 21 25 25 27 43 88 105 92 60 60 46 32 112 52 287 343 332 315 241 208 211 195 80 106 73 84 110 166 165 226 237 191 187 311 308 262 324 327 202 326 320 344 345 344 340
351 356 359 358 2 5 22 44 28 28 29 31 33 48 84 104 49 14 48 47 28 70 252 285 317 11 2 235 190 202 218 58 40 25 37 273 213 162 248 243 241 160 206 218 252 336 280 277 299 316 340 348 336 333
350 352 357 355 360 8 40 40 34 30 40 48 57 71 92 69 4 330 16 45 355 16 61 330 322 288 14 81 165 190 171 186 115 160 229 245 236 152 159 251 177 20 304 269 277 308 298 278 286 309 329 333 331 336
349 348 352 352 356 13 20 26 30 26 50 67 72 65 49 13 7 35 191 322 353 2 43 323 341 334 354 47 60 77 136 207 178 199 234 240 245 184 230 244 41 309 299 294 290 309 288 255 295 304 306 323 338 355
350 347 347 351 348 352 342 331 316 347 347 334 329 332 342 331 325 332 76 23 11 44 359 9 283 340 13 207 54 21 336 7 357 266 318 277 17 16 253 23 322 300 294 282 276 261 279 289 289 287 312 341 5 358
352 346 341 343 341 339 313 291 279 299 313 298 298 301 304 248 256 345 285 273 280 173 219 200 265 293 3 54 48 7 34 4 304 316 343 358 348 280 313 305 293 294 272 272 281 278 277 277 282 302 325 353 353 5
350 347 344 338 340 320 312 285 274 279 297 306 309 287 255 261 285 303 173 268 308 174 199 256 247 268 116 98 161 149 234 191 254 24 4 141 300 269 297 287 276 272 250 238 244 254 254 263 268 297 314 325 328 10
343 347 342 338 332 326 296 285 264 266 295 299 299 260 296 308 304 52 13 69 301 317 207 248 244 297 157 167 128 152 138 24 26 355 340 328 288 305 322 329 345 353 351 211 227 249 252 264 278 298 298 311 17 31
334 339 340 334 328 318 284 286 237 219 236 298 290 293 297 317 317 337 261 198 179 241 220 193 250 204 289 11 123 180 152 210 236 327 359 358 298 320 335 339 344 1 10 19 297 234 239 256 255 237 269 132 69 44
330 332 330 330 335 0 328 281 258 224 279 298 241 241 37 260 330 60 325 316 332 198 223 185 306 187 349 37 73 101 58 19 324 38 342 259 289 323 322 321 328 7 26 38 36 37 54 47 53 55 58 49 44 47
333 333 331 336 70 11 355 295 215 195 211 258 270 309 186 271 243 214 208 228 235 149 176 162 111 102 337 55 93 73 299 11 24 5 333 285 305 325 332 310 345 10 30 39 44 43 42 44 45 44 51 55 49 40
333 335 351 181 324 342 343 271 177 166 161 241 224 237 219 238 253 242 226 316 199 151 123 96 67 94 21 83 54 97 46 16 218 238 256 276 311 324 343 349 322 0 28 23 20 57 65 52 54 56 48 48 49 47
328 327 255 327 321 322 312 154 167 195 233 224 236 255 214 64 280 280 229 243 159 152 118 74 106 82 50 123 89 150 102 228 239 222 240 291 337 337 336 341 308 354 22 20 22 43 45 36 50 61 65 62 60 53
327 269 306 318 324 346 163 144 170 215 231 225 243 220 226 261 226 211 179 194 147 93 171 117 60 153 122 85 48 175 175 209 215 239 227 228 257 323 330 348 22 359 20 28 33 33 31 37 53 61 58 62 75 80
316 306 309 312 328 158 235 206 221 224 242 233 235 248 195 219 175 220 218 151 132 166 155 152 126 83 147 167 236 232 227 248 229 233 246 243 223 170 134 91 92 82 71 50 40 37 34 32 31 24 45 75 77 75
315 319 320 313 250 212 232 211 204 245 230 232 252 238 208 256 253 336 97 144 143 135 116 67 90 169 226 211 189 206 221 206 209 237 240 237 200 169 156 135 97 76 60 53 44 35 26 28 1 0 37 75 97 85
319 316 309 312 224 206 263 245 202 252 265 243 248 357 135 200 271 339 159 138 119 139 99 140 177 205 189 211 190 184 180 167 143 67 326 9 182 172 165 165 129 104 63 27 26 22 11 11 16 6 54 95 121 128
323 284 327 327 235 225 260 265 255 218 263 235 161 92 281 2 360 18 350 81 71 218 208 200 189 195 187 196 180 166 167 170 187 186 187 170 189 170 152 146 134 117 86 46 20 358 353 350 351 18 39 42 75 127
267 284 251 225 262 215 258 233 229 271 143 269 34 89 138 250 286 254 126 131 218 221 188 165 182 156 160 189 196 198 193 195 211 197 160 148 136 149 154 154 137 116 93 35 4 353 0 20 67 80 83 92 107 102
274 240 226 205 266 229 261 192 213 205 205 219 55 269 244 229 227 125 235 214 240 203 182 171 162 173 180 191 191 197 193 187 185 188 172 164 148 144 142 147 142 132 117 36 14 53 94 87 109 96 95 93 89 77
206 222 232 226 188 261 291 250 221 164 109 173 183 273 230 209 85 29 258 254 236 157 159 172 142 115 108 166 207 202 203 183 145 145 163 150 134 138 146 138 137 121 106 101 95 91 100 102 101 93 84 88 77 332
141 260 157 247 246 260 256 256 224 160 238 180 196 258 208 38 138 246 245 264 228 192 171 159 164 169 174 180 138 174 186 175 162 155 170 167 143 134 140 144 141 132 124 125 103 100 101 116 91 70 42 9 344 313
199 235 194 196 230 206 234 253 218 211 194 171 204 104 79 81 293 248 238 223 215 182 168 175 175 163 218 197 169 192 192 183 175 152 178 178 172 166 168 162 154 166 142 123 139 111 121 91 33 314 322 328 324 316
219 235 221 227 80 300 287 267 251 220 214 188 170 165 153 212 241 249 260 214 199 201 194 193 190 188 196 192 204 215 181 179 180 197 180 180 182 182 175 177 184 176 164 171 276 306 284 266 292 311 315 318 317 314
238 254 197 175 205 229 257 255 254 243 247 144 120 176 194 221 246 235 213 199 195 168 162 183 208 216 201 189 176 159 151 153 139 139 152 167 183 188 186 177 181 185 195 229 300 328 317 283 294 297 307 313 317 320
227 232 180 210 208 226 221 209 220 237 173 154 176 201 220 215 221 191 214 170 168 158 131 130 132 152 148 153 159 166 161 154 138 136 154 173 183 191 189 186 187 213 228 242 279 312 317 294 303 304 304 305 308 313
238 183 196 216 194 227 228 196 232 233 183 182 136 61 341 305 221 208 189 167 165 168 167 165 162 160 154 157 161 172 175 178 183 165 171 191 201 185 190 192 196 213 222 231 252 270 271 289 300 305 310 317 321 325
176 165 207 219 244 236 224 228 201 230 247 174 3 174 206 300 316 232 211 196 173 170 163 161 170 173 164 164 163 163 191 196 198 197 185 196 178 184 189 191 189 200 232 231 248 268 284 296 305 312 317 319 321 324
189 198 196 214 242 251 145 180 190 206 187 149 208 223 94 35 269 248 193 184 166 169 185 178 175 189 191 193 191 187 187 203 203 199 194 175 177 182 187 188 192 231 247 243 257 277 293 305 312 317 319 321 324 325
203 192 201 279 265 259 208 150 153 134 97 135 229 197 190 179 234 229 160 204 212 203 199 196 197 195 192 195 195 192 207 199 191 193 183 174 176 179 182 186 199 229 246 265 280 293 304 309 313 317 322 327 328 329